STARLINK-34568, 64717

Orbit data source: Space-Track

STARLINK-34568, 64717 is a payload satellite owned by SpaceX/Seattle (US) in LEO that was launched on Sat, 28 Jun 2025 UTC via an FALCON 9 launch vehicle from the Air Force Western Test Range (AFWTR). Payload-class satellites include a variety of spacecraft equipped with specific instruments for various scientific and technological missions. These include communications satellites like Starlink; space stations such as the ISS; scientific satellites like the Hubble; Earth observation satellites from companies like Planet Labs, Umbra, and HawkEye 360; GPS; miniature CubeSats for education and research; and military/defense satellites.

Loading next visibility...
Identifier
64717, 2025-142X
Orbit
LEO
Last TLE update
3 hours ago
Origin
Manufacturer
SpaceX/Seattle
Mission
Operational spacecraft
Bus & Motor
STARLINK V2MO, Unknown motor
Mass
575 kg wet, ~530 kg dry
Launch date (UTC)
2025-06-28 (3 weeks ago)
Launch vehicle
FALCON 9
Launch site
Air Force Western Test Range (AFWTR)
Object type
Payload
Rocket body
Debris
Shape & HBR
Unknown
Radar Cross Section
Large (>1 m²)

Expand to show TLE details & history

TLE from 3 hours ago
0 STARLINK-34568
1 64717U 25142X   25199.58335648 -.01206665  00000-0 -21178-1 0  9995
2 64717  69.9999 194.6226 0004153 280.4725 190.8485 15.53397760  4161
Epoch: 2025-07-18T14:00Z
TLE epoch observation values (Epoch: 2025-07-18T14:00:01.999Z)
Latitude
61.21238°
Longitude
-173.22027°
Altitude
419.432 km
Speed
7.664 km/s
True Right ascension
22h 13m 40s
True Declination
61° 03' 35"
Sunlit
Object was in daylight at epoch
Visualization orbit readout
Latitude
-23.7225°
Longitude
-123.2656°
Altitude
415.559 km
Speed
7.661 km/s
Apparent Right ascension
22h 33m 01s
Apparent Declination
-46° 08' 01"
Sunlit
Object is in daylight
Visualization observer readout
Local Sidereal Time
06:16:18
Azimuth
240.06° WSW
Elevation
-43.959°
Doppler factor
1
Orbital elements
Apogee altitude
407.529 km
Perigee altitude
401.895 km
Semi-major axis
6,782.849 km
Eccentricity
0.00042
Inclination
69.9999°
RAAN
194.6226°
Arg. of periapsis
280.4725°
True anomaly
190.83955°
Mean anomaly
190.8485°
Eccentric anomaly
190.84402°
Mean motion
3.8853 °/min
Orbital period
92.66 mins
BSTAR
-0.021178
Loading maneuver chart data...
Loading SW <> Apogee altitude chart data...
Loading historical data...
Loading historical data...
Loading historical data...
Loading historical data...
Loading historical data...
Loading historical data...
Loading historical data...
|